Location: Bathurst
(33.4193°S, 149.5775°E)
Time: 07:10:55
(UTC+11:00)

Tiangong 2 - Visible Passes

Search period start: 20 February 2018 00:00
Search period end: 02 March 2018 00:00
Orbit: 384 x 388 km, 42.8° (Epoch: 19 February)

Date Brightness Start Highest point End Pass type
(mag) Time Alt. Az. Time Alt. Az. Time Alt. Az.
20 Feb 4.0 04:19:51 18° SE 04:19:51 18° SE 04:20:57 10° SE visible
20 Feb 3.6 05:53:02 10° SW 05:55:12 16° S 05:57:22 10° SE visible
21 Feb 3.2 04:55:52 20° SSW 04:56:00 20° SSW 04:58:27 10° SE visible
22 Feb 4.8 03:59:37 10° SE 03:59:37 10° SE 03:59:38 10° SE visible
22 Feb 3.7 05:32:19 10° SW 05:34:20 15° S 05:36:21 10° SE visible
23 Feb 3.8 04:35:39 16° S 04:35:39 16° S 04:37:15 10° SE visible
23 Feb 3.6 06:10:17 10° SW 06:12:41 19° SSE 06:15:03 10° ESE visible
24 Feb 3.8 05:11:44 12° SSW 05:13:27 16° S 05:15:33 10° SE visible
25 Feb 4.5 04:15:38 12° SSE 04:15:38 12° SSE 04:16:12 10° SE visible
25 Feb 3.2 05:48:58 10° SW 05:51:41 24° SSE 05:54:25 10° ESE visible
26 Feb 3.5 04:51:54 18° S 04:52:29 19° SSE 04:54:52 10° ESE visible
27 Feb 2.5 05:28:19 15° SW 05:30:36 37° SSE 05:33:37 10° E visible
28 Feb 3.9 04:32:38 20° SE 04:32:38 20° SE 04:34:10 10° ESE visible
28 Feb 1.1 06:05:13 10° WSW 06:08:24 61° NNW 06:11:34 10° NE visible
01 Mar 1.4 05:09:27 67° SE 05:09:27 67° SE 05:12:34 10° ENE visible
